Location: Wildlife_Club
(35.6000°N, 81.4330°W)
Time: 18:11:25
(UTC-04:00)

Vanguard 2 - Visible Passes

Search period start: 25 June 2019 00:00
Search period end: 05 July 2019 00:00
Orbit: 553 x 2939 km, 32.9° (Epoch: 25 June)

Date Brightness Start Highest point End Pass type
(mag) Time Alt. Az. Time Alt. Az. Time Alt. Az.
29 Jun 9.1 05:43:17 10° S 05:45:34 14° SSE 05:47:47 10° ESE visible
02 Jul 9.2 04:30:33 13° SSE 04:31:09 14° SSE 04:33:19 10° SE visible
03 Jul 8.7 04:47:24 17° S 04:49:03 21° SSE 04:52:10 10° ESE visible
04 Jul 8.2 05:04:13 17° SSW 05:06:58 29° SSE 05:10:29 10° E visible
